[[{"header":{"parameterUnit":"m.s-1","parameterCategory":2,"la1":30.2991,"la2":30.254,"lo1":-89.0895,"lo2":-89.0444,"dy":0.0017,"dx":0.0017,"nx":28,"ny":28,"refTime":"2025-03-18T21:00:00:Z","depth":"0","parameterNumber":2,"parameterNumberName":"U-component_of_CURRENTS"},"data":[0,0,0,0,0,0,0,0,0,0,0,0,0,0,0,0,0,0,0,0,0,0,0,0,0,0,0,0,0,0,0,0,0,0,0,0,0,0,0,0,0,0,0,0,0,0,0,0,0,0,0,0,0,0,0,0,0,0,-0.2031,-0.2031,0,-0.2033,-0.2033,-0.2033,-0.202,-0.2019,-0.2019,-0.2018,-0.2018,-0.2019,-0.2019,0,0,0,0,0,0,0,0,0,0,0,0,0,-0.1981,-0.1982,-0.2031,-0.2031,-0.2031,-0.2033,-0.2033,-0.2033,-0.202,-0.2019,-0.2019,-0.2018,-0.2018,-0.2019,-0.2019,0,0,0,0,0,0,0,0,0,0,0,0,0,-0.1996,-0.1983,-0.2032,-0.2024,-0.2023,-0.2033,-0.2033,-0.2033,-0.202,-0.2019,-0.2019,-0.2018,-0.2018,-0.2019,-0.2019,-0.2037,0,0,-0.2021,-0.2021,0,0,0,0,0,0,0,0,-0.1995,-0.1998,-0.2025,-0.2025,-0.2024,-0.2024,-0.2015,-0.2034,-0.202,-0.2022,-0.2018,-0.2018,-0.202,-0.202,-0.2024,-0.2037,-0.2037,-0.2021,-0.2022,-0.2022,-0.2022,0,0,0,0,0,0,0,-0.1994,-0.1998,-0.2033,-0.2025,-0.2024,-0.2008,-0.201,-0.2018,-0.2026,-0.2022,-0.2021,-0.202,-0.202,-0.2023,-0.2024,-0.2037,-0.2021,-0.2022,-0.2022,-0.2022,-0.2058,-0.2059,0,0,0,0,0,0,-0.1995,-0.1997,-0.2033,-0.2033,-0.2006,-0.201,-0.2012,-0.2026,-0.2026,-0.2025,-0.202,-0.2019,-0.2022,-0.2023,-0.2024,-0.2046,-0.2022,-0.2022,-0.2023,-0.2058,-0.2059,-0.2059,0,0,0,0,0,0,-0.1994,-0.1999,-0.2033,-0.2013,-0.2016,-0.2011,-0.2027,-0.2026,-0.2028,-0.2024,-0.2023,-0.2022,-0.2022,-0.2023,-0.2037,-0.2045,-0.2023,-0.2023,-0.2057,-0.2058,-0.2059,-0.2089,0,0,0,0,0,0,-0.1993,-0.1999,-0.2009,-0.2014,-0.2017,-0.2046,-0.2028,-0.2027,-0.2027,-0.2026,-0.2026,-0.2025,-0.2021,-0.2037,-0.2038,-0.2046,-0.2024,-0.2056,-0.2058,-0.2059,-0.2087,-0.2091,-0.2094,0,0,0,0,0,-0.1991,-0.2015,-0.201,-0.2014,-0.2032,-0.2046,-0.2047,-0.2041,-0.2028,-0.2038,-0.2036,-0.2025,-0.2044,-0.2038,-0.2039,-0.2048,-0.2056,-0.2057,-0.2059,-0.2086,-0.209,-0.2094,0,0,0,0,0,0,-0.1996,-0.2015,-0.2011,-0.2038,-0.2042,-0.2044,-0.205,-0.2043,-0.205,-0.2044,-0.2038,-0.2039,-0.2053,-0.2049,-0.2042,-0.2061,-0.2046,-0.2047,-0.2066,-0.207,-0.2073,-0.2077,-0.2024,0,0,0,0,0,-0.2002,-0.2023,-0.2033,-0.205,-0.2055,-0.2051,-0.2054,-0.205,-0.2054,-0.2055,-0.2053,-0.2052,-0.2061,-0.2064,-0.207,-0.2084,-0.2054,-0.2088,-0.2091,-0.2094,-0.2098,-0.2082,-0.2083,-0.2063,-0.2063,-0.2063,0,0,-0.2006,-0.2018,-0.2029,-0.2051,-0.2052,-0.207,-0.2052,-0.2059,-0.2068,-0.2055,-0.2066,-0.2066,-0.2068,-0.2084,-0.2089,-0.208,-0.2076,-0.2096,-0.2098,-0.2101,-0.2083,-0.2085,-0.2086,-0.2064,-0.2064,-0.2064,0,0,-0.2003,-0.2037,-0.2039,-0.2065,-0.2071,-0.208,-0.2084,-0.2087,-0.2083,-0.2098,-0.2088,-0.2094,-0.2106,-0.2107,-0.2111,-0.2136,-0.2096,-0.2135,-0.2154,-0.2137,-0.2139,-0.214,-0.2065,-0.2059,-0.2134,-0.2134,-0.2134,0,-0.1998,-0.2017,-0.204,-0.2059,-0.2089,-0.2088,-0.2109,-0.211,-0.2114,-0.2118,-0.2105,-0.212,-0.2118,-0.2137,-0.2145,-0.2143,-0.2109,-0.2139,-0.2141,-0.2142,-0.2142,-0.2066,-0.2059,-0.2136,-0.2136,-0.2136,-0.2136,0,-0.1996,-0.2025,-0.2037,-0.2068,-0.2107,-0.2129,-0.2151,-0.2161,-0.2158,-0.2158,-0.2168,-0.216,-0.217,-0.2167,-0.2166,-0.2172,-0.2135,-0.2148,-0.213,-0.2146,-0.2064,-0.2056,-0.2138,-0.2138,-0.2137,-0.2137,0,0,-0.1954,-0.2016,-0.2021,-0.2031,-0.2123,-0.213,-0.2185,-0.2211,-0.2205,-0.2217,-0.221,-0.2233,-0.222,-0.2223,-0.2211,-0.2195,-0.2154,-0.2175,-0.2174,-0.2097,-0.2073,-0.1936,-0.1913,-0.2171,-0.2171,-0.2171,-0.1999,0,-0.1937,-0.1938,-0.202,-0.2054,-0.2061,-0.215,-0.2188,-0.2223,-0.2239,-0.2229,-0.2233,-0.2207,-0.2243,-0.2211,-0.2226,-0.2172,-0.2142,-0.2196,-0.2072,-0.2067,-0.1942,-0.1904,-0.1851,-0.1685,-0.1991,-0.199,-0.1989,0,-0.1913,-0.1913,-0.1929,-0.2007,-0.2025,-0.206,-0.2125,-0.2163,-0.2199,-0.2209,-0.2238,-0.2219,-0.2211,-0.221,-0.2169,-0.2203,-0.2147,-0.21,-0.2092,-0.1954,-0.1917,-0.1727,-0.166,-0.1658,-0.1977,-0.1978,-0.1979,0,-0.1808,-0.1867,-0.1862,-0.1899,-0.1983,-0.2011,-0.2058,-0.2131,-0.2104,-0.2162,-0.2107,-0.218,-0.2095,-0.2125,-0.2048,-0.2106,-0.1952,-0.2019,-0.1838,-0.1825,-0.1748,-0.1729,-0.1664,-0.1969,-0.197,-0.197,-0.1971,0,-0.1768,-0.1767,-0.1787,-0.1786,-0.1763,-0.1894,-0.1869,-0.1952,-0.1973,-0.19,-0.2047,-0.1943,-0.2061,-0.1986,-0.2011,-0.1869,-0.1925,-0.1816,-0.1775,-0.1751,-0.1734,-0.1705,-0.1743,-0.1964,-0.1965,-0.1967,-0.1968,0,-0.1669,-0.1693,-0.1669,-0.1709,-0.1704,-0.1684,-0.1688,-0.1662,-0.1728,-0.1631,-0.1615,-0.1688,-0.1649,-0.1719,-0.1695,-0.1713,-0.1618,-0.1582,-0.1512,-0.1466,-0.1348,-0.1389,-0.1281,-0.1244,-0.1396,-0.1391,-0.1388,0,-0.1614,-0.1584,-0.1555,-0.1512,-0.1523,-0.148,-0.1448,-0.1514,-0.1474,-0.1424,-0.1349,-0.1297,-0.1249,-0.1203,-0.129,-0.131,-0.1376,-0.1205,-0.1328,-0.1299,-0.1318,-0.1388,-0.1373,-0.1223,-0.1218,-0.1214,-0.1211,0,-0.1509,-0.1494,-0.1465,-0.1354,-0.1293,-0.1221,-0.1176,-0.1083,-0.1132,-0.1036,-0.0911,-0.0858,-0.0859,-0.0898,-0.0952,-0.0973,-0.12,-0.112,-0.1138,-0.12,-0.1228,-0.1185,-0.1343,-0.1177,-0.118,-0.1183,-0.1185,-0.1186,-0.1414,-0.1353,-0.1294,-0.1196,-0.1121,-0.1015,-0.0915,-0.0859,-0.0732,-0.0613,-0.0566,-0.0474,-0.0575,-0.0695,-0.0705,-0.0778,-0.0892,-0.0832,-0.0883,-0.0954,-0.0932,-0.0965,-0.0731,-0.0732,-0.0733,-0.0734,-0.0734,0,-0.128,-0.1225,-0.114,-0.1018,-0.0912,-0.0911,-0.0774,-0.0677,-0.0506,-0.0393,-0.0261,-0.0222,-0.03,-0.0443,-0.0599,-0.0591,-0.0656,-0.0603,-0.0747,-0.0744,-0.08,-0.0806,-0.052,-0.052,-0.052,-0.052,-0.052,-0.052,-0.1198,-0.1082,-0.1041,-0.0843,-0.0771,-0.0601,-0.0512,-0.0393,-0.0301,-0.0127,-0.005,-0.0012,-0.0191,-0.0455,-0.0563,-0.0544,-0.0596,-0.0567,-0.0599,-0.0709,-0.0739,-0.0766,-0.0781,-0.0495,-0.0495,-0.0545,-0.0546,-0.0546]},{"header":{"parameterUnit":"m.s-1","parameterCategory":2,"la1":30.2991,"la2":30.254,"lo1":-89.0895,"lo2":-89.0444,"dy":0.0017,"dx":0.0017,"nx":28,"ny":28,"refTime":"2025-03-18T21:00:00:Z","depth":"0","parameterNumber":3,"parameterNumberName":"V-component_of_CURRENTS"},"data":[0,0,0,0,0,0,0,0,0,0,0,0,0,0,0,0,0,0,0,0,0,0,0,0,0,0,0,0,0,0,0,0,0,0,0,0,0,0,0,0,0,0,0,0,0,0,0,0,0,0,0,0,0,0,0,0,0,0,-0.0151,-0.015,0,-0.0122,-0.0122,-0.0121,-0.0091,-0.009,-0.009,-0.0089,-0.0005,-0.0003,-0.0001,0,0,0,0,0,0,0,0,0,0,0,0,0,-0.018,-0.018,-0.0151,-0.015,-0.015,-0.0122,-0.0122,-0.0121,-0.0091,-0.009,-0.0089,-0.0089,-0.0005,-0.0003,-0.0001,0,0,0,0,0,0,0,0,0,0,0,0,0,-0.0162,-0.018,-0.0151,-0.013,-0.0128,-0.0122,-0.0122,-0.0121,-0.0091,-0.009,-0.0089,-0.0089,-0.0006,-0.0003,-0.0001,-0.0001,0,0,0.0007,0.0008,0,0,0,0,0,0,0,0,-0.0163,-0.0161,-0.0134,-0.0132,-0.0129,-0.0108,-0.0101,-0.0078,-0.0091,-0.0106,-0.0089,-0.0088,-0.0034,-0.0029,-0.0028,0.0003,0.0007,0.0008,0.0009,0.001,0.0011,0,0,0,0,0,0,0,-0.0164,-0.0162,-0.014,-0.0133,-0.0131,-0.0123,-0.0119,-0.0097,-0.0075,-0.0105,-0.0102,-0.0098,-0.0032,-0.003,-0.0025,0.0008,0.0007,0.001,0.0011,0.0012,0.0078,0.0078,0,0,0,0,0,0,-0.0167,-0.0164,-0.0141,-0.0139,-0.0143,-0.0123,-0.0119,-0.0117,-0.0076,-0.0069,-0.0098,-0.0096,-0.0035,-0.0028,-0.0022,0.0003,0.001,0.0013,0.0014,0.0078,0.0078,0.0078,0,0,0,0,0,0,-0.0167,-0.0165,-0.0142,-0.015,-0.0146,-0.0123,-0.0121,-0.0116,-0.011,-0.0072,-0.0064,-0.0095,-0.0034,-0.0026,-0.0,0.0006,0.0014,0.0016,0.0078,0.0078,0.0078,0.004,0,0,0,0,0,0,-0.0168,-0.0166,-0.0167,-0.015,-0.0146,-0.0142,-0.0121,-0.0116,-0.0108,-0.0104,-0.0066,-0.0058,-0.0033,-0.0005,0.0002,0.001,0.0018,0.0077,0.0078,0.0078,0.0041,0.0039,0.0037,0,0,0,0,0,-0.017,-0.0162,-0.0168,-0.0165,-0.0148,-0.0143,-0.014,-0.0122,-0.0108,-0.0111,-0.0082,-0.0059,0.0003,-0.0003,0.0005,0.0014,0.0077,0.0078,0.0078,0.0042,0.004,0.0037,0,0,0,0,0,0,-0.018,-0.0158,-0.0163,-0.0152,-0.0155,-0.0137,-0.0126,-0.0124,-0.0105,-0.0096,-0.0061,-0.0051,-0.0025,-0.0002,-0.0009,0.0035,0.0046,0.0048,0.0016,0.0014,0.0012,0.0018,0.002,0,0,0,0,0,-0.0186,-0.0171,-0.0165,-0.0162,-0.0155,-0.0146,-0.0141,-0.0138,-0.0117,-0.0109,-0.0085,-0.0052,-0.0019,-0.0001,0.0025,0.0045,0.0107,0.0058,0.0056,0.0054,0.0065,0.0163,0.0172,0.0079,0.0079,0.0079,0,0,-0.0195,-0.0176,-0.0173,-0.0163,-0.0153,-0.0166,-0.014,-0.0133,-0.014,-0.0101,-0.0092,-0.0061,-0.0016,0.0007,0.0022,0.0029,0.0113,0.0055,0.0053,0.0065,0.0165,0.0174,0.0182,0.008,0.008,0.0079,0,0,-0.0206,-0.0183,-0.0182,-0.0188,-0.018,-0.0171,-0.0172,-0.0164,-0.0147,-0.0147,-0.0109,-0.0071,-0.0044,-0.0,0.0025,0.0029,0.0097,0.0033,0.0032,0.0127,0.0136,0.0144,0.0235,0.0252,0.0035,0.0035,0.0035,0,-0.0223,-0.0225,-0.0186,-0.0199,-0.0198,-0.0177,-0.0195,-0.0182,-0.0173,-0.0136,-0.0149,-0.0065,-0.0043,0.0027,0.0017,0.0027,0.0091,0.0035,0.0126,0.0136,0.0145,0.0236,0.0256,0.0033,0.0034,0.0034,0.0034,0,-0.0245,-0.0259,-0.0253,-0.026,-0.0252,-0.0261,-0.024,-0.022,-0.0198,-0.0178,-0.0112,-0.008,-0.0014,-0.0014,-0.0006,0.0076,0.0104,0.011,0.0133,0.0152,0.0247,0.0268,0.0031,0.0031,0.0032,0.0032,0,0,-0.0249,-0.0269,-0.027,-0.028,-0.0284,-0.0268,-0.0256,-0.0213,-0.0133,-0.0157,-0.0064,-0.0055,-0.0011,0.0021,0.0052,0.011,0.0211,0.0127,0.0133,0.0219,0.043,0.0409,0.043,0.0237,0.0241,0.0243,0.0469,0,-0.0285,-0.0326,-0.0313,-0.0339,-0.0354,-0.0311,-0.0261,-0.0214,-0.015,-0.0053,-0.002,0.0067,-0.0003,0.006,0.0095,0.0193,0.0265,0.015,0.0397,0.0404,0.0385,0.0452,0.0442,0.0638,0.0489,0.0493,0.0496,0,-0.0313,-0.033,-0.0378,-0.0333,-0.0319,-0.0322,-0.0184,-0.0139,-0.0003,0.0068,0.0127,0.0173,0.0234,0.0194,0.0332,0.0264,0.0342,0.0402,0.0413,0.0424,0.0422,0.0595,0.0682,0.0769,0.0528,0.0526,0.0523,0,-0.0326,-0.0356,-0.0384,-0.0395,-0.035,-0.0316,-0.0258,-0.0114,-0.0005,0.0146,0.0252,0.0316,0.0389,0.0452,0.0491,0.0449,0.0668,0.0642,0.0703,0.0703,0.0759,0.0757,0.0962,0.0783,0.0783,0.0782,0.0781,0,-0.0366,-0.0378,-0.0396,-0.0417,-0.036,-0.031,-0.0185,-0.0083,0.0099,0.0244,0.0308,0.0435,0.046,0.0554,0.0576,0.0688,0.0737,0.0731,0.077,0.0742,0.0736,0.0863,0.0881,0.0791,0.0789,0.0787,0.0786,0,-0.0387,-0.0419,-0.0433,-0.0403,-0.0389,-0.0337,-0.0189,-0.0063,0.0122,0.0311,0.0359,0.0546,0.0651,0.0678,0.0821,0.0828,0.0987,0.0965,0.0913,0.0939,0.1037,0.1051,0.129,0.1372,0.1091,0.1092,0.1093,0,-0.0406,-0.0432,-0.0434,-0.0427,-0.043,-0.0354,-0.0271,-0.0092,0.0039,0.0371,0.046,0.0638,0.0762,0.0952,0.0952,0.1024,0.107,0.1114,0.1016,0.107,0.1117,0.1113,0.1165,0.1092,0.1093,0.1093,0.1094,0,-0.0417,-0.0422,-0.0425,-0.043,-0.0401,-0.0325,-0.0218,-0.0114,0.0134,0.0322,0.0592,0.0736,0.0906,0.0986,0.1068,0.1097,0.1169,0.1128,0.1228,0.1173,0.1148,0.1234,0.091,0.1099,0.1099,0.1098,0.1098,0.1098,-0.0395,-0.0399,-0.041,-0.0399,-0.0363,-0.0286,-0.0202,-0.0063,0.0148,0.0473,0.0599,0.0867,0.1032,0.1126,0.1155,0.1235,0.1222,0.1285,0.1316,0.1322,0.1343,0.1011,0.1195,0.1195,0.1195,0.1195,0.1195,0,-0.0361,-0.0372,-0.0368,-0.0349,-0.03,-0.0285,-0.0135,-0.0015,0.0193,0.0459,0.0693,0.0999,0.1149,0.1265,0.1352,0.1434,0.1452,0.1494,0.1512,0.1571,0.1336,0.1273,0.1429,0.1429,0.1429,0.1429,0.1429,0.1429,-0.034,-0.0341,-0.0351,-0.0292,-0.0266,-0.016,-0.0074,0.0095,0.0287,0.0636,0.0883,0.107,0.1293,0.1486,0.1633,0.165,0.1778,0.1726,0.1838,0.1666,0.1649,0.1632,0.1581,0.1799,0.1799,0.2062,0.2065,0.2066]}],[{"header":{"parameterUnit":"m.s-1","parameterCategory":2,"la1":30.2991,"la2":30.254,"lo1":-89.0895,"lo2":-89.0444,"dy":0.0017,"dx":0.0017,"nx":28,"ny":28,"refTime":"2025-03-18T21:00:00:Z","depth":"2","parameterNumber":2,"parameterNumberName":"U-component_of_CURRENTS"},"data":[0,0,0,0,0,0,0,0,0,0,0,0,0,0,0,0,0,0,0,0,0,0,0,0,0,0,0,0,0,0,0,0,0,0,0,0,0,0,0,0,0,0,0,0,0,0,0,0,0,0,0,0,0,0,0,0,0,0,-0.199,-0.199,0,-0.1986,-0.1986,-0.1986,-0.1968,-0.1967,-0.1967,-0.1967,-0.1952,-0.1952,-0.1952,0,0,0,0,0,0,0,0,0,0,0,0,0,-0.1935,-0.1937,-0.199,-0.199,-0.199,-0.1986,-0.1986,-0.1986,-0.1968,-0.1967,-0.1967,-0.1967,-0.1952,-0.1952,-0.1952,0,0,0,0,0,0,0,0,0,0,0,0,0,-0.1948,-0.1937,-0.199,-0.1981,-0.198,-0.1986,-0.1986,-0.1986,-0.1968,-0.1967,-0.1967,-0.1966,-0.1952,-0.1952,-0.1952,-0.1963,0,0,-0.1951,-0.1951,0,0,0,0,0,0,0,0,-0.1947,-0.195,-0.1982,-0.1981,-0.198,-0.1977,-0.1961,-0.1978,-0.1968,-0.1972,-0.1967,-0.1966,-0.196,-0.1959,-0.1959,-0.1962,-0.1961,-0.1951,-0.1951,-0.1951,-0.1951,0,0,0,0,0,0,0,-0.1946,-0.195,-0.1988,-0.1982,-0.1981,-0.1961,-0.1963,-0.1964,-0.1969,-0.1972,-0.197,-0.1971,-0.1959,-0.1959,-0.1959,-0.1961,-0.1951,-0.1951,-0.1951,-0.1951,-0.1977,-0.1977,0,0,0,0,0,0,-0.1951,-0.1949,-0.1988,-0.1988,-0.1963,-0.1963,-0.1964,-0.1978,-0.1969,-0.1967,-0.1972,-0.197,-0.196,-0.1959,-0.1958,-0.1978,-0.1951,-0.1951,-0.1951,-0.1976,-0.1977,-0.1978,0,0,0,0,0,0,-0.195,-0.1955,-0.1988,-0.1968,-0.197,-0.1965,-0.198,-0.1979,-0.1981,-0.1969,-0.1967,-0.1976,-0.1959,-0.1958,-0.1966,-0.1977,-0.1951,-0.1951,-0.1975,-0.1976,-0.1977,-0.2014,0,0,0,0,0,0,-0.1949,-0.1955,-0.1963,-0.1969,-0.1972,-0.2,-0.1981,-0.1979,-0.1982,-0.1981,-0.1972,-0.197,-0.1959,-0.1967,-0.1966,-0.1977,-0.1951,-0.1974,-0.1976,-0.1977,-0.2012,-0.2016,-0.202,0,0,0,0,0,-0.1947,-0.1957,-0.1964,-0.1968,-0.1985,-0.2001,-0.2001,-0.1993,-0.1983,-0.1992,-0.1985,-0.197,-0.1975,-0.1967,-0.1967,-0.1977,-0.1974,-0.1975,-0.1977,-0.201,-0.2015,-0.2019,0,0,0,0,0,0,-0.1935,-0.1957,-0.1964,-0.198,-0.1995,-0.1998,-0.1995,-0.1999,-0.2,-0.1995,-0.1982,-0.198,-0.1991,-0.1982,-0.1974,-0.1989,-0.1971,-0.1973,-0.1996,-0.2001,-0.2005,-0.2006,-0.1951,0,0,0,0,0,-0.1939,-0.195,-0.1974,-0.1984,-0.1992,-0.1997,-0.2,-0.2005,-0.2008,-0.2007,-0.2001,-0.1996,-0.1998,-0.1997,-0.1997,-0.2007,-0.1986,-0.2013,-0.2017,-0.202,-0.2022,-0.201,-0.2013,-0.1983,-0.1983,-0.1983,0,0,-0.1934,-0.1947,-0.1952,-0.1982,-0.1986,-0.2012,-0.1997,-0.2009,-0.2028,-0.2006,-0.2018,-0.2012,-0.2005,-0.2015,-0.2019,-0.2008,-0.2015,-0.2023,-0.2025,-0.2025,-0.2012,-0.2015,-0.2017,-0.1984,-0.1984,-0.1984,0,0,-0.1934,-0.1945,-0.1961,-0.1983,-0.2004,-0.2014,-0.2023,-0.2039,-0.2039,-0.206,-0.2045,-0.2046,-0.2051,-0.2045,-0.2043,-0.207,-0.2038,-0.207,-0.2089,-0.2079,-0.2081,-0.2082,-0.2044,-0.2042,-0.207,-0.207,-0.207,0,-0.1926,-0.1974,-0.1967,-0.1996,-0.2028,-0.2021,-0.2067,-0.206,-0.2076,-0.2078,-0.2069,-0.2072,-0.2065,-0.2073,-0.2082,-0.2079,-0.2058,-0.2071,-0.2083,-0.2084,-0.2086,-0.2046,-0.2043,-0.2072,-0.2072,-0.2072,-0.2071,0,-0.1945,-0.1999,-0.2007,-0.2052,-0.2072,-0.2113,-0.212,-0.2118,-0.212,-0.2123,-0.213,-0.2118,-0.2118,-0.2116,-0.2108,-0.2114,-0.2091,-0.2091,-0.207,-0.2091,-0.2048,-0.2044,-0.2075,-0.2074,-0.2073,-0.2073,0,0,-0.1896,-0.201,-0.2015,-0.2088,-0.2125,-0.2157,-0.2156,-0.2184,-0.2177,-0.2179,-0.2187,-0.2186,-0.2169,-0.2166,-0.215,-0.2138,-0.2124,-0.212,-0.2119,-0.2079,-0.2079,-0.1963,-0.1948,-0.2127,-0.2127,-0.2127,-0.204,0,-0.1929,-0.2028,-0.2072,-0.2181,-0.2241,-0.2254,-0.2252,-0.2254,-0.2241,-0.2229,-0.2208,-0.2209,-0.219,-0.2188,-0.2175,-0.2139,-0.2119,-0.2146,-0.2067,-0.2064,-0.1956,-0.1942,-0.1813,-0.1716,-0.2036,-0.2035,-0.2035,0,-0.1928,-0.2014,-0.2131,-0.2277,-0.23,-0.2355,-0.237,-0.2366,-0.2314,-0.2298,-0.2278,-0.2254,-0.2233,-0.2217,-0.2157,-0.2175,-0.2133,-0.2099,-0.2095,-0.1972,-0.1942,-0.175,-0.1697,-0.2029,-0.2029,-0.203,-0.203,0,-0.1885,-0.2062,-0.2175,-0.2223,-0.2344,-0.2397,-0.2433,-0.2388,-0.2338,-0.2334,-0.2285,-0.2288,-0.2232,-0.2221,-0.2123,-0.2154,-0.2034,-0.2071,-0.1923,-0.1914,-0.1779,-0.1757,-0.2033,-0.2033,-0.2033,-0.2033,-0.2033,0,-0.1895,-0.1992,-0.2189,-0.2247,-0.2351,-0.2421,-0.2446,-0.2448,-0.2387,-0.2334,-0.2317,-0.2252,-0.2225,-0.2138,-0.212,-0.1974,-0.2026,-0.1911,-0.1882,-0.1785,-0.1766,-0.2026,-0.2026,-0.203,-0.203,-0.2031,-0.2032,0,-0.181,-0.194,-0.207,-0.2261,-0.2331,-0.2372,-0.2434,-0.2433,-0.2364,-0.2286,-0.2277,-0.2179,-0.2079,-0.2009,-0.1945,-0.1902,-0.1837,-0.1774,-0.164,-0.1596,-0.1736,-0.174,-0.1639,-0.1634,-0.163,-0.1627,-0.1624,0,-0.1784,-0.1842,-0.2044,-0.2116,-0.2229,-0.2318,-0.2372,-0.2396,-0.2403,-0.2237,-0.2232,-0.2058,-0.1954,-0.1763,-0.1661,-0.1565,-0.1664,-0.1411,-0.1458,-0.1713,-0.1696,-0.1706,-0.1715,-0.1292,-0.1287,-0.1283,-0.1279,0,-0.1719,-0.177,-0.1871,-0.2014,-0.2148,-0.2233,-0.2355,-0.2313,-0.2314,-0.2238,-0.2127,-0.2002,-0.1764,-0.1553,-0.1352,-0.131,-0.143,-0.1317,-0.1604,-0.141,-0.1379,-0.1364,-0.1386,-0.124,-0.1244,-0.1247,-0.1249,-0.1251,-0.1638,-0.166,-0.1786,-0.1906,-0.2054,-0.2133,-0.211,-0.2199,-0.2124,-0.1909,-0.199,-0.1709,-0.164,-0.1208,-0.112,-0.099,-0.1114,-0.1109,-0.1126,-0.1147,-0.112,-0.1084,-0.0883,-0.0885,-0.0886,-0.0888,-0.0889,0,-0.1552,-0.1603,-0.1695,-0.1821,-0.1892,-0.2037,-0.2101,-0.1978,-0.1865,-0.1715,-0.1587,-0.134,-0.1117,-0.0983,-0.0716,-0.07,-0.0737,-0.0686,-0.0753,-0.079,-0.0823,-0.0785,-0.0456,-0.0455,-0.0454,-0.0453,0,0,-0.1508,-0.1525,-0.1562,-0.1625,-0.1736,-0.178,-0.1756,-0.1556,-0.1409,-0.1133,-0.0962,-0.0956,-0.0943,-0.0712,-0.0674,-0.0496,-0.0638,-0.0461,-0.0804,-0.0917,-0.0949,-0.1056,-0.1036,0,0,0,0,0]},{"header":{"parameterUnit":"m.s-1","parameterCategory":2,"la1":30.2991,"la2":30.254,"lo1":-89.0895,"lo2":-89.0444,"dy":0.0017,"dx":0.0017,"nx":28,"ny":28,"refTime":"2025-03-18T21:00:00:Z","depth":"2","parameterNumber":3,"parameterNumberName":"V-component_of_CURRENTS"},"data":[0,0,0,0,0,0,0,0,0,0,0,0,0,0,0,0,0,0,0,0,0,0,0,0,0,0,0,0,0,0,0,0,0,0,0,0,0,0,0,0,0,0,0,0,0,0,0,0,0,0,0,0,0,0,0,0,0,0,-0.0226,-0.0226,0,-0.0174,-0.0174,-0.0173,-0.0143,-0.0142,-0.0142,-0.0142,-0.0051,-0.0049,-0.0047,0,0,0,0,0,0,0,0,0,0,0,0,0,-0.0271,-0.0271,-0.0226,-0.0226,-0.0225,-0.0174,-0.0174,-0.0173,-0.0143,-0.0142,-0.0142,-0.0142,-0.0052,-0.0049,-0.0047,0,0,0,0,0,0,0,0,0,0,0,0,0,-0.024,-0.027,-0.0227,-0.0202,-0.02,-0.0174,-0.0174,-0.0173,-0.0143,-0.0142,-0.0142,-0.0142,-0.0053,-0.005,-0.0046,-0.0034,0,0,-0.0036,-0.0035,0,0,0,0,0,0,0,0,-0.0242,-0.0239,-0.0207,-0.0204,-0.0201,-0.0163,-0.0156,-0.0124,-0.0143,-0.0166,-0.0142,-0.0141,-0.0084,-0.0079,-0.0072,-0.003,-0.0026,-0.0036,-0.0034,-0.0033,-0.0032,0,0,0,0,0,0,0,-0.0244,-0.024,-0.0207,-0.0206,-0.0202,-0.0184,-0.018,-0.015,-0.0128,-0.0164,-0.0161,-0.0153,-0.0083,-0.0075,-0.007,-0.0025,-0.0036,-0.0033,-0.0031,-0.003,0.0052,0.0052,0,0,0,0,0,0,-0.0249,-0.0243,-0.0209,-0.0205,-0.0219,-0.0184,-0.0179,-0.0177,-0.0129,-0.0122,-0.0154,-0.0152,-0.0081,-0.0074,-0.0066,-0.0041,-0.0033,-0.003,-0.0028,0.0051,0.0052,0.0052,0,0,0,0,0,0,-0.0251,-0.0247,-0.0211,-0.0221,-0.0215,-0.0184,-0.0181,-0.0176,-0.0167,-0.0122,-0.0114,-0.015,-0.0081,-0.0071,-0.0041,-0.0038,-0.0028,-0.0025,0.0051,0.0052,0.0052,0.0004,0,0,0,0,0,0,-0.0252,-0.0248,-0.0253,-0.0222,-0.0215,-0.0201,-0.0181,-0.0175,-0.0162,-0.016,-0.0116,-0.0107,-0.008,-0.0046,-0.0038,-0.0033,-0.0023,0.0051,0.0051,0.0052,0.0005,0.0002,0.0,0,0,0,0,0,-0.0254,-0.0271,-0.0254,-0.025,-0.0221,-0.0201,-0.0196,-0.0172,-0.0162,-0.0163,-0.0131,-0.0108,-0.0037,-0.0043,-0.0033,-0.0028,0.0051,0.0051,0.0052,0.0006,0.0003,0.0,0,0,0,0,0,0,-0.0299,-0.0268,-0.0249,-0.0256,-0.0228,-0.0195,-0.0199,-0.0176,-0.0152,-0.0149,-0.0107,-0.0097,-0.007,-0.0042,-0.0049,-0.0002,0.0012,0.0014,-0.0026,-0.0029,-0.0031,-0.0037,-0.002,0,0,0,0,0,-0.0308,-0.0311,-0.0271,-0.0277,-0.0267,-0.0231,-0.0221,-0.0199,-0.0171,-0.0161,-0.013,-0.0094,-0.0061,-0.004,-0.0011,0.0015,0.006,0.0027,0.0024,0.0022,0.0024,0.0086,0.0089,0.0054,0.0054,0.0054,0,0,-0.0327,-0.0311,-0.0312,-0.0286,-0.0267,-0.0254,-0.0225,-0.0212,-0.0197,-0.0154,-0.0136,-0.0104,-0.0057,-0.0031,-0.0015,-0.0006,0.0058,0.0022,0.002,0.0024,0.0087,0.0091,0.0094,0.0054,0.0054,0.0054,0,0,-0.0374,-0.0351,-0.037,-0.0343,-0.0311,-0.028,-0.0275,-0.0238,-0.022,-0.0194,-0.0159,-0.0125,-0.0081,-0.0043,-0.0018,-0.0014,0.0039,-0.0005,-0.0017,0.0042,0.0045,0.0049,0.0119,0.013,-0.0002,-0.0002,-0.0002,0,-0.0398,-0.0415,-0.0372,-0.0372,-0.0357,-0.0293,-0.0298,-0.0263,-0.022,-0.0201,-0.0196,-0.012,-0.0085,-0.0036,-0.0037,-0.0019,0.0026,-0.0013,0.0038,0.0043,0.0047,0.0119,0.0131,-0.0005,-0.0004,-0.0004,-0.0004,0,-0.0451,-0.0457,-0.0467,-0.0441,-0.0409,-0.041,-0.0341,-0.0309,-0.0277,-0.0241,-0.0196,-0.0148,-0.0098,-0.0083,-0.006,-0.0009,0.0017,0.0023,0.0043,0.0048,0.0123,0.0136,-0.0008,-0.0007,-0.0006,-0.0006,0,0,-0.0525,-0.0515,-0.0513,-0.052,-0.045,-0.0436,-0.0384,-0.0334,-0.0304,-0.0255,-0.022,-0.0167,-0.0133,-0.0102,-0.0061,-0.0012,0.0057,0.0014,0.0018,0.0079,0.0202,0.015,0.016,0.007,0.0072,0.0074,0.0244,0,-0.0588,-0.0633,-0.0585,-0.0598,-0.0614,-0.0514,-0.047,-0.0396,-0.0337,-0.028,-0.0207,-0.0151,-0.0139,-0.0102,-0.0061,0.0029,0.0089,0.0011,0.0192,0.0198,0.0147,0.0172,0.014,0.0283,0.0258,0.026,0.0261,0,-0.0644,-0.0678,-0.0723,-0.0691,-0.0683,-0.0664,-0.0575,-0.0512,-0.0385,-0.033,-0.0252,-0.0182,-0.0087,-0.0079,0.007,0.002,0.0107,0.0173,0.0181,0.0158,0.017,0.0273,0.0308,0.0284,0.0282,0.0281,0.0279,0,-0.0732,-0.0754,-0.0806,-0.0797,-0.0749,-0.0736,-0.0677,-0.055,-0.0473,-0.0336,-0.0249,-0.0169,-0.0061,0.0015,0.0139,0.0123,0.0301,0.0303,0.0345,0.0344,0.0365,0.0361,0.042,0.0419,0.0419,0.0418,0.0418,0,-0.0806,-0.084,-0.0868,-0.0894,-0.0931,-0.0827,-0.08,-0.0701,-0.054,-0.044,-0.0278,-0.0168,-0.0026,0.0093,0.0155,0.0281,0.0323,0.0353,0.0382,0.0346,0.0339,0.0372,0.0364,0.0425,0.0423,0.0422,0.0421,0,-0.0869,-0.089,-0.0953,-0.0967,-0.0978,-0.098,-0.0872,-0.0821,-0.0623,-0.0472,-0.04,-0.0129,0.0039,0.0153,0.0317,0.0346,0.0438,0.0478,0.0423,0.044,0.0446,0.0434,0.0557,0.0557,0.0556,0.0556,0.0556,0,-0.0905,-0.0956,-0.103,-0.1074,-0.1094,-0.1091,-0.1069,-0.0897,-0.0807,-0.0457,-0.0381,-0.0118,0.0048,0.0277,0.0355,0.0464,0.0473,0.0508,0.0455,0.0443,0.046,0.0448,0.0437,0.0491,0.049,0.049,0.0489,0,-0.0978,-0.1006,-0.1063,-0.1173,-0.121,-0.1203,-0.1151,-0.1101,-0.0843,-0.0695,-0.0417,-0.0231,0.0092,0.0239,0.04,0.0443,0.0466,0.0496,0.0538,0.0423,0.0383,0.0398,0.0389,0.0483,0.0484,0.0484,0.0485,0.0485,-0.1022,-0.1083,-0.1168,-0.1253,-0.1292,-0.1283,-0.1248,-0.1164,-0.1033,-0.075,-0.0593,-0.0278,-0.0022,0.0209,0.0333,0.0464,0.0461,0.0478,0.048,0.0482,0.0406,0.0363,0.0448,0.0449,0.0449,0.0449,0.0449,0,-0.1078,-0.1145,-0.1235,-0.1319,-0.1352,-0.1335,-0.1263,-0.1189,-0.1072,-0.0851,-0.0655,-0.0396,-0.0165,0.0143,0.0353,0.0452,0.0464,0.0463,0.0467,0.047,0.0473,0.0397,0.0438,0.0438,0.0439,0.044,0,0,-0.111,-0.1199,-0.1242,-0.1335,-0.1376,-0.1351,-0.129,-0.1177,-0.1007,-0.0826,-0.0614,-0.0482,-0.0078,0.0019,0.0178,0.0349,0.0376,0.0351,0.0341,0.0328,0.0331,0.0457,0.0337,0,0,0,0,0]}],[{"header":{"parameterUnit":"m.s-1","parameterCategory":2,"la1":30.2991,"la2":30.254,"lo1":-89.0895,"lo2":-89.0444,"dy":0.0017,"dx":0.0017,"nx":28,"ny":28,"refTime":"2025-03-18T21:00:00:Z","depth":"4","parameterNumber":2,"parameterNumberName":"U-component_of_CURRENTS"},"data":[0,0,0,0,0,0,0,0,0,0,0,0,0,0,0,0,0,0,0,0,0,0,0,0,0,0,0,0,0,0,0,0,0,0,0,0,0,0,0,0,0,0,0,0,0,0,0,0,0,0,0,0,0,0,0,0,0,0,-0.1531,-0.1532,0,-0.155,-0.155,-0.155,-0.1559,-0.1559,-0.156,-0.156,-0.1557,-0.1556,-0.1556,0,0,0,0,0,0,0,0,0,0,0,0,0,-0.1443,-0.1445,-0.1531,-0.1532,-0.1532,-0.1551,-0.155,-0.155,-0.1559,-0.1559,-0.156,-0.156,-0.1557,-0.1556,-0.1556,0,0,0,0,0,0,0,0,0,0,0,0,0,-0.1471,-0.1446,-0.1531,-0.1541,-0.1542,-0.1551,-0.155,-0.155,-0.1559,-0.1559,-0.156,-0.156,-0.1557,-0.1556,-0.1556,-0.1546,0,0,-0.1554,-0.1554,0,0,0,0,0,0,0,0,-0.147,-0.1474,-0.1539,-0.154,-0.1542,-0.1555,-0.1518,-0.1549,-0.1559,-0.155,-0.156,-0.156,-0.1556,-0.1555,-0.1554,-0.1545,-0.1545,-0.1554,-0.1554,-0.1554,-0.1554,0,0,0,0,0,0,0,-0.1468,-0.1473,-0.1536,-0.154,-0.1541,-0.1524,-0.1529,-0.1524,-0.1548,-0.155,-0.1552,-0.1558,-0.1556,-0.1555,-0.1554,-0.1545,-0.1554,-0.1554,-0.1554,-0.1553,-0.1588,-0.159,0,0,0,0,0,0,-0.1475,-0.1472,-0.1535,-0.1537,-0.1509,-0.1526,-0.1531,-0.1548,-0.1548,-0.155,-0.1558,-0.1559,-0.1555,-0.1555,-0.1554,-0.16,-0.1554,-0.1553,-0.1553,-0.1587,-0.1589,-0.159,0,0,0,0,0,0,-0.1473,-0.148,-0.1535,-0.1506,-0.1512,-0.1528,-0.1547,-0.1549,-0.1576,-0.1555,-0.1555,-0.1587,-0.1556,-0.1555,-0.1573,-0.1598,-0.1553,-0.1553,-0.1586,-0.1588,-0.1589,-0.1655,0,0,0,0,0,0,-0.147,-0.148,-0.1502,-0.1507,-0.1514,-0.1561,-0.1547,-0.1549,-0.1579,-0.1581,-0.158,-0.1578,-0.1556,-0.1574,-0.1573,-0.1596,-0.1552,-0.1584,-0.1587,-0.1589,-0.1651,-0.1659,-0.1665,0,0,0,0,0,-0.1467,-0.1486,-0.1503,-0.1511,-0.1542,-0.1562,-0.1565,-0.1574,-0.1581,-0.1599,-0.1598,-0.1579,-0.1587,-0.1575,-0.1573,-0.1597,-0.1583,-0.1586,-0.1589,-0.1648,-0.1657,-0.1665,0,0,0,0,0,0,-0.1457,-0.149,-0.1508,-0.1537,-0.1563,-0.1566,-0.158,-0.1594,-0.1607,-0.1614,-0.1594,-0.1592,-0.1617,-0.1601,-0.1587,-0.1614,-0.1583,-0.1585,-0.1629,-0.1637,-0.1644,-0.1638,-0.1552,0,0,0,0,0,-0.1468,-0.1494,-0.1523,-0.155,-0.1565,-0.1582,-0.1595,-0.1609,-0.1618,-0.1626,-0.1627,-0.1625,-0.1622,-0.1626,-0.1621,-0.1637,-0.1607,-0.1652,-0.1659,-0.1665,-0.166,-0.1638,-0.1642,-0.1599,-0.1599,-0.1599,0,0,-0.1471,-0.1493,-0.1509,-0.155,-0.1567,-0.1597,-0.1591,-0.1622,-0.1651,-0.1622,-0.1661,-0.1653,-0.1633,-0.1649,-0.1659,-0.1642,-0.1664,-0.1669,-0.1674,-0.1665,-0.1641,-0.1645,-0.1649,-0.1601,-0.1601,-0.16,0,0,-0.1481,-0.1514,-0.154,-0.1566,-0.1607,-0.1621,-0.1641,-0.167,-0.1688,-0.1723,-0.1706,-0.1715,-0.1722,-0.1707,-0.1699,-0.1743,-0.1703,-0.1749,-0.1778,-0.1758,-0.1761,-0.1763,-0.1737,-0.1736,-0.1751,-0.1751,-0.1751,0,-0.1485,-0.1525,-0.155,-0.1581,-0.1607,-0.1639,-0.1674,-0.1697,-0.1731,-0.1741,-0.1747,-0.175,-0.1745,-0.1743,-0.1761,-0.1758,-0.1736,-0.1748,-0.1766,-0.1767,-0.1768,-0.1741,-0.1739,-0.1755,-0.1754,-0.1754,-0.1754,0,-0.1509,-0.1553,-0.1567,-0.1624,-0.1657,-0.169,-0.173,-0.1769,-0.1798,-0.1808,-0.183,-0.1819,-0.1812,-0.1822,-0.1806,-0.1814,-0.1793,-0.1778,-0.1742,-0.1776,-0.1746,-0.1743,-0.176,-0.1758,-0.1757,-0.1757,0,0,-0.148,-0.1569,-0.1577,-0.1609,-0.1683,-0.1703,-0.1768,-0.1812,-0.1833,-0.1869,-0.1877,-0.1892,-0.1878,-0.1868,-0.1851,-0.1842,-0.1842,-0.182,-0.1818,-0.179,-0.1793,-0.1665,-0.1649,-0.1831,-0.183,-0.183,-0.177,0,-0.1492,-0.1555,-0.1604,-0.1666,-0.1697,-0.1756,-0.1801,-0.1847,-0.1878,-0.1893,-0.189,-0.1893,-0.1896,-0.1891,-0.1885,-0.1846,-0.1836,-0.1859,-0.1767,-0.1764,-0.1642,-0.1641,-0.183,-0.1768,-0.1767,-0.1766,-0.1766,0,-0.1492,-0.1535,-0.1602,-0.1677,-0.1696,-0.1741,-0.1807,-0.1851,-0.1887,-0.1905,-0.1914,-0.1908,-0.1904,-0.1898,-0.1858,-0.1872,-0.1841,-0.1815,-0.1811,-0.1662,-0.1629,-0.1725,-0.176,-0.176,-0.1761,-0.1761,-0.1762,0,-0.1433,-0.1526,-0.1578,-0.1606,-0.17,-0.174,-0.1789,-0.1849,-0.1873,-0.1906,-0.1908,-0.1909,-0.1892,-0.1869,-0.1831,-0.1846,-0.1767,-0.1776,-0.1632,-0.1623,-0.1729,-0.1727,-0.1744,-0.1744,-0.1744,-0.1744,-0.1744,0,-0.1404,-0.1443,-0.1554,-0.1574,-0.1619,-0.1702,-0.1744,-0.1794,-0.1843,-0.1849,-0.1895,-0.1883,-0.1885,-0.1846,-0.182,-0.1699,-0.1757,-0.1623,-0.1592,-0.176,-0.1762,-0.1727,-0.1726,-0.1742,-0.1742,-0.1743,-0.1743,0,-0.1323,-0.1406,-0.1455,-0.1558,-0.1591,-0.1617,-0.1712,-0.173,-0.1797,-0.1805,-0.1816,-0.1849,-0.1794,-0.1769,-0.1714,-0.1656,-0.1577,-0.1525,-0.1696,-0.1678,-0.1455,-0.1459,-0.1356,-0.1351,-0.1347,-0.1343,-0.134,0,-0.1289,-0.1311,-0.1415,-0.1439,-0.1488,-0.155,-0.1586,-0.1686,-0.1705,-0.1774,-0.1753,-0.1737,-0.1737,-0.154,-0.155,-0.1454,-0.1441,-0.1403,-0.1442,-0.1432,-0.1413,-0.1423,-0.1432,-0.1333,-0.1332,-0.1331,-0.133,0,-0.1207,-0.1254,-0.129,-0.1335,-0.1381,-0.1423,-0.1485,-0.1487,-0.1591,-0.1672,-0.1634,-0.1593,-0.151,-0.1452,-0.1365,-0.1317,-0.143,-0.1358,-0.1367,-0.1403,-0.1403,-0.139,-0.1404,-0.1314,-0.1317,-0.1318,-0.1319,0,-0.1138,-0.1136,-0.1186,-0.121,-0.126,-0.1264,-0.1324,-0.1349,-0.1384,-0.1483,-0.1474,-0.1461,-0.1504,-0.1379,-0.1318,-0.123,-0.1218,-0.1197,-0.1216,-0.1232,-0.1215,-0.1198,-0.1003,0,0,0,0,0,-0.1064,-0.1046,-0.1058,-0.1071,-0.1111,-0.1137,-0.1235,-0.1305,-0.142,-0.135,-0.1408,-0.1338,-0.1245,-0.1251,-0.1124,-0.1236,-0.1207,-0.1085,-0.1191,-0.123,-0.1248,-0.1236,0,0,0,0,0,0,-0.1013,-0.102,-0.1012,-0.0942,-0.0921,-0.0952,-0.1008,-0.1098,-0.1076,-0.12,-0.1145,-0.1244,-0.1153,-0.1261,-0.1084,-0.108,-0.1119,-0.1095,-0.1091,-0.122,-0.1236,-0.125,-0.1245,0,0,0,0,0]},{"header":{"parameterUnit":"m.s-1","parameterCategory":2,"la1":30.2991,"la2":30.254,"lo1":-89.0895,"lo2":-89.0444,"dy":0.0017,"dx":0.0017,"nx":28,"ny":28,"refTime":"2025-03-18T21:00:00:Z","depth":"4","parameterNumber":3,"parameterNumberName":"V-component_of_CURRENTS"},"data":[0,0,0,0,0,0,0,0,0,0,0,0,0,0,0,0,0,0,0,0,0,0,0,0,0,0,0,0,0,0,0,0,0,0,0,0,0,0,0,0,0,0,0,0,0,0,0,0,0,0,0,0,0,0,0,0,0,0,-0.017,-0.0169,0,-0.0108,-0.0107,-0.0106,-0.008,-0.008,-0.008,-0.008,0.0013,0.0016,0.0018,0,0,0,0,0,0,0,0,0,0,0,0,0,-0.0215,-0.0214,-0.017,-0.0169,-0.0168,-0.0108,-0.0107,-0.0106,-0.008,-0.008,-0.008,-0.008,0.0012,0.0015,0.0018,0,0,0,0,0,0,0,0,0,0,0,0,0,-0.0179,-0.0214,-0.017,-0.0148,-0.0145,-0.0108,-0.0107,-0.0106,-0.008,-0.008,-0.008,-0.008,0.0011,0.0015,0.0019,0.0045,0,0,0.0031,0.0032,0,0,0,0,0,0,0,0,-0.0181,-0.0177,-0.0152,-0.0149,-0.0146,-0.0101,-0.0088,-0.0054,-0.008,-0.0105,-0.008,-0.008,-0.0022,-0.0015,-0.0004,0.0049,0.0053,0.0031,0.0033,0.0035,0.0036,0,0,0,0,0,0,0,-0.0183,-0.0179,-0.0146,-0.0151,-0.0148,-0.0123,-0.0119,-0.0082,-0.0063,-0.0103,-0.0101,-0.0093,-0.002,-0.0008,-0.0002,0.0055,0.0031,0.0034,0.0037,0.0038,0.0133,0.0133,0,0,0,0,0,0,-0.0193,-0.0182,-0.0148,-0.0144,-0.0164,-0.0122,-0.0117,-0.0116,-0.0064,-0.0057,-0.0093,-0.0092,-0.0015,-0.0006,0.0002,0.0023,0.0035,0.0038,0.0041,0.0133,0.0133,0.0133,0,0,0,0,0,0,-0.0194,-0.0191,-0.015,-0.0161,-0.0154,-0.0122,-0.012,-0.0115,-0.0106,-0.0057,-0.0049,-0.0091,-0.0014,-0.0004,0.003,0.0027,0.004,0.0044,0.0133,0.0133,0.0133,0.0074,0,0,0,0,0,0,-0.0196,-0.0192,-0.0198,-0.0162,-0.0154,-0.0134,-0.012,-0.0113,-0.0101,-0.0099,-0.0052,-0.0044,-0.0014,0.0024,0.0034,0.0033,0.0047,0.0132,0.0133,0.0133,0.0076,0.0072,0.0069,0,0,0,0,0,-0.0198,-0.0214,-0.0199,-0.0195,-0.0163,-0.0134,-0.0128,-0.0105,-0.0101,-0.0099,-0.0067,-0.0046,0.0033,0.0027,0.0039,0.0039,0.0132,0.0133,0.0133,0.0077,0.0073,0.0069,0,0,0,0,0,0,-0.024,-0.0211,-0.0195,-0.0202,-0.017,-0.013,-0.0133,-0.011,-0.0084,-0.0084,-0.0041,-0.003,-0.0003,0.003,0.0021,0.0068,0.0086,0.0089,0.004,0.0036,0.0033,0.0018,0.005,0,0,0,0,0,-0.025,-0.0254,-0.0213,-0.0218,-0.0208,-0.0169,-0.0157,-0.0135,-0.0104,-0.0094,-0.0061,-0.0024,0.0009,0.003,0.0063,0.0093,0.0104,0.0101,0.0098,0.0095,0.0091,0.011,0.0108,0.0135,0.0135,0.0135,0,0,-0.0267,-0.0252,-0.0254,-0.0226,-0.0206,-0.0188,-0.0163,-0.0148,-0.0131,-0.0086,-0.0067,-0.0035,0.0014,0.0041,0.0057,0.0068,0.0089,0.0095,0.0092,0.0091,0.011,0.0107,0.0105,0.0135,0.0135,0.0135,0,0,-0.0299,-0.029,-0.03,-0.0274,-0.0241,-0.0212,-0.0209,-0.0168,-0.0154,-0.0122,-0.0091,-0.0063,-0.0008,0.0022,0.0046,0.0049,0.0068,0.0061,0.0038,0.0055,0.0053,0.0051,0.0036,0.0034,0.0064,0.0063,0.0063,0,-0.032,-0.0327,-0.0297,-0.029,-0.0283,-0.0226,-0.0228,-0.0193,-0.0144,-0.0139,-0.0124,-0.0059,-0.0018,0.0014,0.0016,0.004,0.0043,0.0044,0.0049,0.0048,0.0047,0.0033,0.003,0.0061,0.0061,0.0061,0.0062,0,-0.0346,-0.0351,-0.0358,-0.0332,-0.0313,-0.031,-0.0255,-0.0233,-0.0209,-0.0177,-0.0151,-0.0097,-0.0062,-0.004,-0.0007,0.0008,0.0007,0.0036,0.0052,0.004,0.0026,0.0025,0.0057,0.0058,0.0059,0.0059,0,0,-0.0398,-0.0385,-0.0385,-0.0399,-0.0343,-0.0341,-0.0303,-0.0274,-0.0277,-0.0213,-0.0222,-0.0147,-0.0125,-0.0096,-0.0054,-0.0027,-0.0035,-0.0001,0.0002,-0.0028,-0.0024,-0.0017,-0.0018,-0.0007,-0.0007,-0.0007,-0.0041,0,-0.0433,-0.0456,-0.043,-0.045,-0.0462,-0.0406,-0.0395,-0.0352,-0.0311,-0.0298,-0.0229,-0.0217,-0.0142,-0.0142,-0.0098,-0.0053,-0.0037,-0.0031,0.0004,0.0004,0.0003,-0.0018,-0.0007,-0.0042,-0.0042,-0.0042,-0.0042,0,-0.0462,-0.0483,-0.0516,-0.0545,-0.0549,-0.0546,-0.0538,-0.0518,-0.0456,-0.0432,-0.0374,-0.032,-0.0263,-0.0209,-0.0126,-0.0127,-0.0082,-0.0043,-0.0042,-0.0013,0.001,-0.0017,-0.0044,-0.0044,-0.0044,-0.0044,-0.0044,0,-0.0523,-0.0548,-0.0594,-0.0592,-0.0596,-0.0615,-0.0617,-0.0566,-0.0571,-0.0516,-0.052,-0.0424,-0.0408,-0.0311,-0.0199,-0.0171,-0.0128,-0.0081,-0.0036,-0.0036,-0.0008,-0.0005,-0.0037,-0.0037,-0.0037,-0.0037,-0.0037,0,-0.0566,-0.0606,-0.0637,-0.0657,-0.0728,-0.0707,-0.0755,-0.0728,-0.0712,-0.0714,-0.0608,-0.0587,-0.0432,-0.0367,-0.0251,-0.0155,-0.0167,-0.0052,-0.004,-0.0035,-0.0034,-0.0011,-0.0007,-0.0038,-0.0038,-0.0038,-0.0037,0,-0.0605,-0.062,-0.0682,-0.073,-0.0751,-0.08,-0.0842,-0.0862,-0.0852,-0.0848,-0.0839,-0.0734,-0.0623,-0.0483,-0.0347,-0.025,-0.0145,-0.0113,-0.0158,-0.0146,-0.0057,-0.0056,-0.0066,-0.0066,-0.0066,-0.0066,-0.0066,0,-0.0624,-0.0658,-0.0735,-0.0777,-0.0803,-0.0869,-0.09,-0.0914,-0.0914,-0.0913,-0.0906,-0.0832,-0.0726,-0.0546,-0.0392,-0.021,-0.0162,-0.0145,-0.005,-0.007,-0.0058,-0.0057,-0.0056,-0.0066,-0.0066,-0.0066,-0.0066,0,-0.0664,-0.0691,-0.0742,-0.0824,-0.088,-0.0938,-0.0982,-0.1,-0.0995,-0.1005,-0.0931,-0.0819,-0.0711,-0.0521,-0.0407,-0.0258,-0.0167,-0.0143,-0.014,-0.005,-0.007,-0.0057,-0.0056,-0.0065,-0.0066,-0.0066,-0.0066,0,-0.0691,-0.0735,-0.0797,-0.0864,-0.0937,-0.098,-0.1004,-0.0996,-0.1008,-0.0979,-0.0951,-0.0823,-0.0744,-0.055,-0.0429,-0.03,-0.0234,-0.0183,-0.0177,-0.0175,-0.0174,-0.0212,-0.0253,0,0,0,0,0,-0.0714,-0.0758,-0.0828,-0.0903,-0.0972,-0.1005,-0.104,-0.1044,-0.1039,-0.0976,-0.096,-0.0829,-0.0636,-0.0558,-0.0418,-0.0425,-0.0232,-0.0262,-0.0174,-0.0064,-0.0065,-0.0039,0,0,0,0,0,0,-0.0731,-0.08,-0.0828,-0.0913,-0.0962,-0.1029,-0.1047,-0.1042,-0.0988,-0.0964,-0.0844,-0.0801,-0.06,-0.0704,-0.0416,-0.0383,-0.031,-0.0174,-0.0171,-0.0064,-0.0064,-0.0065,-0.0039,0,0,0,0,0]}]]